DKEKS EDXM-EDXM

Flight info

Callsign DKEKS
Flight time 0h 54m
Altitude
Route
Aircraft A33E

Departure

Time 2026-05-05 18:22
Airport Sankt Michaelisdonn Airfield (EDXM)

Arrival

Time 2026-05-05 19:16
Airport Sankt Michaelisdonn Airfield (EDXM)
Time Latitude Longitude Altitude Speed Heading
2026-05-05 18:22 53.94893 9.13790 2127 ft 81 kts 214°
2026-05-05 18:22 53.94435 9.13209 2337 ft 77 kts 215°
2026-05-05 18:22 53.93988 9.12640 2269 ft 83 kts 214°
2026-05-05 18:22 53.93530 9.12058 2282 ft 83 kts 215°
2026-05-05 18:23 53.93066 9.11481 2333 ft 82 kts 208°
2026-05-05 18:23 53.92561 9.11045 2341 ft 80 kts 204°
2026-05-05 18:23 53.92051 9.10640 2318 ft 81 kts 185°
2026-05-05 18:23 53.91592 9.10969 2421 ft 65 kts 114°
2026-05-05 18:24 53.91380 9.11617 2592 ft 67 kts 144°
2026-05-05 18:24 53.91078 9.11510 2642 ft 79 kts 235°
2026-05-05 18:24 53.91310 9.10942 2833 ft 69 kts 22°
2026-05-05 18:24 53.91370 9.11557 2996 ft 65 kts 143°
2026-05-05 18:25 53.91083 9.11269 3146 ft 64 kts 286°
2026-05-05 18:25 53.91313 9.11106 3237 ft 58 kts 40°
2026-05-05 18:25 53.91078 9.11295 3386 ft 67 kts 261°
2026-05-05 18:25 53.91368 9.11077 3526 ft 58 kts 60°
2026-05-05 18:26 53.91134 9.11312 3599 ft 73 kts 237°
2026-05-05 18:26 53.91363 9.10915 3741 ft 63 kts 45°
2026-05-05 18:26 53.91165 9.11224 3875 ft 69 kts 222°
2026-05-05 18:26 53.91313 9.10725 3998 ft 66 kts 26°
2026-05-05 18:27 53.91227 9.11174 4142 ft 67 kts 189°
2026-05-05 18:27 53.91184 9.10590 4291 ft 66 kts 342°
2026-05-05 18:27 53.91272 9.10985 4406 ft 63 kts 162°
2026-05-05 18:27 53.91188 9.10443 4529 ft 66 kts 341°
2026-05-05 18:28 53.91134 9.10407 4780 ft 67 kts 298°
2026-05-05 18:28 53.91432 9.10487 4898 ft 57 kts 97°
2026-05-05 18:28 53.91099 9.10511 5005 ft 67 kts 245°
2026-05-05 18:29 53.91084 9.10436 5016 ft 67 kts 260°
2026-05-05 18:29 53.91229 9.10061 5091 ft 64 kts 353°
2026-05-05 18:29 53.91380 9.10509 5199 ft 59 kts 131°
2026-05-05 18:29 53.91042 9.10269 5304 ft 67 kts 267°
2026-05-05 18:30 53.91342 9.09895 5404 ft 60 kts 31°
2026-05-05 18:30 53.91315 9.10396 5455 ft 67 kts 166°
2026-05-05 18:30 53.91122 9.09851 5579 ft 67 kts 306°
2026-05-05 18:30 53.91564 9.09709 5470 ft 85 kts 15°
2026-05-05 18:31 53.92182 9.10030 5461 ft 93 kts 24°
2026-05-05 18:31 53.92781 9.10434 5528 ft 93 kts 28°
2026-05-05 18:31 53.93355 9.10957 5549 ft 96 kts 34°
2026-05-05 18:31 53.93918 9.11538 5561 ft 92 kts 34°
2026-05-05 18:32 53.94459 9.12164 5482 ft 95 kts 37°
2026-05-05 18:32 53.94966 9.12850 5416 ft 95 kts 44°
2026-05-05 18:32 53.95387 9.13687 5371 ft 92 kts 52°
2026-05-05 18:32 53.95871 9.14424 5371 ft 93 kts 34°
2026-05-05 18:33 53.96462 9.14877 5366 ft 94 kts 24°
2026-05-05 18:33 53.97068 9.15313 5322 ft 93 kts 26°
2026-05-05 18:33 53.97645 9.15781 5277 ft 92 kts 30°
2026-05-05 18:33 53.98169 9.16242 5473 ft 44 kts 333°
2026-05-05 18:34 53.98553 9.16539 4961 ft 93 kts 36°
2026-05-05 18:34 53.99086 9.17122 4854 ft 94 kts 17°
2026-05-05 18:34 53.99575 9.16206 4778 ft 98 kts 295°
2026-05-05 18:34 53.99835 9.15150 4694 ft 102 kts 294°
2026-05-05 18:35 54.00106 9.14058 4666 ft 98 kts 297°
2026-05-05 18:35 54.00425 9.12995 4588 ft 100 kts 299°
2026-05-05 18:35 54.00743 9.11957 4516 ft 101 kts 300°
2026-05-05 18:35 54.01139 9.10987 4321 ft 100 kts 348°
2026-05-05 18:36 54.01558 9.10426 4277 ft 38 kts 315°
2026-05-05 18:36 54.01858 9.11003 3618 ft 102 kts 56°
2026-05-05 18:36 54.02142 9.11938 3690 ft 91 kts 84°
2026-05-05 18:36 54.02228 9.12991 3639 ft 90 kts 81°
2026-05-05 18:37 54.02298 9.14048 3572 ft 90 kts 84°
2026-05-05 18:37 54.02333 9.15116 3504 ft 91 kts 87°
2026-05-05 18:37 54.02334 9.16177 3444 ft 90 kts 91°
2026-05-05 18:37 54.02293 9.17247 3390 ft 91 kts 93°
2026-05-05 18:38 54.02255 9.18309 3347 ft 91 kts 92°
2026-05-05 18:38 54.02232 9.19374 3307 ft 89 kts 90°
2026-05-05 18:38 54.02212 9.20422 3307 ft 86 kts 86°
2026-05-05 18:38 54.02244 9.21476 3322 ft 85 kts 86°
2026-05-05 18:39 54.02285 9.22423 3385 ft 76 kts 78°
2026-05-05 18:39 54.02649 9.23027 3304 ft 84 kts 21°
2026-05-05 18:39 54.03177 9.23332 3354 ft 78 kts 31°
2026-05-05 18:39 54.03404 9.24111 3344 ft 81 kts 104°
2026-05-05 18:40 54.02986 9.24418 3606 ft 76 kts 211°
2026-05-05 18:40 54.03031 9.23740 3667 ft 69 kts 358°
2026-05-05 18:40 54.03075 9.24225 3705 ft 75 kts 165°
2026-05-05 18:40 54.02848 9.23678 3832 ft 67 kts 305°
2026-05-05 18:41 54.03103 9.23839 3838 ft 63 kts 112°
2026-05-05 18:41 54.02748 9.23752 3879 ft 75 kts 262°
2026-05-05 18:41 54.02992 9.23671 3872 ft 68 kts 107°
2026-05-05 18:41 54.02641 9.23494 3932 ft 74 kts 266°
2026-05-05 18:42 54.02769 9.22672 3956 ft 70 kts 291°
2026-05-05 18:42 54.02920 9.21886 3995 ft 69 kts 287°
2026-05-05 18:42 54.02778 9.21210 4013 ft 68 kts 197°
2026-05-05 18:42 54.02526 9.21622 4005 ft 64 kts 60°
2026-05-05 18:43 54.02987 9.22033 3829 ft 89 kts 27°
2026-05-05 18:43 54.03570 9.22476 3828 ft 92 kts 26°
2026-05-05 18:43 54.04150 9.22921 3833 ft 92 kts 27°
2026-05-05 18:43 54.04727 9.23407 3830 ft 91 kts 31°
2026-05-05 18:44 54.05269 9.23967 3798 ft 92 kts 33°
2026-05-05 18:44 54.05823 9.24503 3763 ft 92 kts 30°
2026-05-05 18:44 54.06397 9.24955 3715 ft 92 kts 23°
2026-05-05 18:44 54.07020 9.25200 3672 ft 92 kts
2026-05-05 18:45 54.07668 9.25101 3615 ft 95 kts 348°
2026-05-05 18:45 54.08281 9.24705 3565 ft 94 kts 340°
2026-05-05 18:45 54.08884 9.24273 3583 ft 86 kts 340°
2026-05-05 18:45 54.09331 9.23913 3806 ft 63 kts 340°
2026-05-05 18:46 54.09651 9.24083 3878 ft 60 kts 94°
2026-05-05 18:46 54.09257 9.23961 4005 ft 88 kts 262°
2026-05-05 18:46 54.09543 9.23793 4131 ft 66 kts 82°
2026-05-05 18:46 54.09168 9.23993 4320 ft 83 kts 221°
2026-05-05 18:47 54.09244 9.23295 4409 ft 67 kts 358°
2026-05-05 18:47 54.09315 9.23823 4432 ft 70 kts 132°
2026-05-05 18:47 54.08873 9.24083 4545 ft 81 kts 209°
2026-05-05 18:47 54.08937 9.23443 4552 ft 71 kts
2026-05-05 18:48 54.08890 9.23968 4574 ft 78 kts 175°
2026-05-05 18:48 54.08495 9.23474 4550 ft 83 kts 275°
2026-05-05 18:48 54.08919 9.23175 4488 ft 74 kts
2026-05-05 18:48 54.09182 9.22531 4455 ft 84 kts 268°
2026-05-05 18:49 54.09172 9.21487 4356 ft 90 kts 274°
2026-05-05 18:49 54.09242 9.20461 4335 ft 87 kts 278°
2026-05-05 18:49 54.09281 9.19442 4285 ft 87 kts 273°
2026-05-05 18:49 54.09285 9.18421 4229 ft 86 kts 271°
2026-05-05 18:50 54.09281 9.17392 4178 ft 88 kts 269°
2026-05-05 18:50 54.09216 9.16379 4184 ft 86 kts 261°
2026-05-05 18:50 54.09126 9.15375 4214 ft 86 kts 262°
2026-05-05 18:50 54.09083 9.14793 4232 ft 87 kts 263°
2026-05-05 18:51 54.08913 9.13841 4288 ft 83 kts 236°
2026-05-05 18:51 54.08783 9.12828 4160 ft 94 kts 272°
2026-05-05 18:51 54.08807 9.11768 4176 ft 87 kts 276°
2026-05-05 18:51 54.08886 9.10732 4137 ft 88 kts 279°
2026-05-05 18:52 54.08977 9.09713 4080 ft 89 kts 282°
2026-05-05 18:52 54.09100 9.08694 4096 ft 85 kts 284°
2026-05-05 18:52 54.08982 9.07861 4255 ft 78 kts 206°
2026-05-05 18:52 54.08675 9.08221 4360 ft 61 kts 58°
2026-05-05 18:53 54.08945 9.07928 4354 ft 80 kts 245°
2026-05-05 18:53 54.08637 9.08160 4471 ft 60 kts 59°
2026-05-05 18:53 54.08939 9.07849 4464 ft 75 kts 286°
2026-05-05 18:53 54.09015 9.07013 4584 ft 71 kts 282°
2026-05-05 18:54 54.09225 9.06486 4711 ft 56 kts 23°
2026-05-05 18:54 54.09094 9.06868 4864 ft 73 kts 202°
2026-05-05 18:54 54.09158 9.06325 4969 ft 61 kts 21°
2026-05-05 18:54 54.09013 9.06689 5101 ft 75 kts 213°
2026-05-05 18:55 54.09150 9.06186 5201 ft 59 kts 33°
2026-05-05 18:55 54.09001 9.06642 5360 ft 67 kts 192°
2026-05-05 18:55 54.08961 9.06013 5418 ft 62 kts 346°
2026-05-05 18:55 54.09057 9.06455 5526 ft 68 kts 150°
2026-05-05 18:56 54.08801 9.05973 5619 ft 67 kts 311°
2026-05-05 18:56 54.09012 9.06267 5698 ft 67 kts 124°
2026-05-05 18:56 54.08660 9.06011 5765 ft 72 kts 281°
2026-05-05 18:56 54.08945 9.06001 5844 ft 65 kts 90°
2026-05-05 18:57 54.08660 9.05861 5809 ft 85 kts 304°
2026-05-05 18:57 54.08901 9.06054 5947 ft 74 kts 120°
2026-05-05 18:57 54.08537 9.05778 6041 ft 75 kts 284°
2026-05-05 18:57 54.08816 9.05853 6138 ft 64 kts 95°
2026-05-05 18:58 54.08804 9.05918 6154 ft 64 kts 109°
2026-05-05 18:59 54.08466 9.05910 6201 ft 74 kts 247°
2026-05-05 18:59 54.08710 9.05507 6271 ft 57 kts 42°
2026-05-05 18:59 54.08511 9.05959 6328 ft 73 kts 196°
2026-05-05 18:59 54.08478 9.05309 6299 ft 73 kts 339°
2026-05-05 19:00 54.09058 9.05329 6199 ft 95 kts 12°
2026-05-05 19:00 54.09743 9.05517 6235 ft 104 kts 15°
2026-05-05 19:00 54.10425 9.05756 6271 ft 100 kts 15°
2026-05-05 19:00 54.11108 9.06035 6202 ft 100 kts 15°
2026-05-05 19:01 54.11790 9.06293 6131 ft 102 kts 15°
2026-05-05 19:01 54.12469 9.06562 6076 ft 102 kts 15°
2026-05-05 19:01 54.13165 9.06859 6033 ft 100 kts 18°
2026-05-05 19:01 54.13835 9.07195 5975 ft 100 kts 18°
2026-05-05 19:02 54.14514 9.07523 5881 ft 104 kts 18°
2026-05-05 19:02 54.15199 9.07839 5843 ft 101 kts 17°
2026-05-05 19:02 54.15887 9.08153 5780 ft 102 kts 18°
2026-05-05 19:02 54.16566 9.08488 5720 ft 103 kts 17°
2026-05-05 19:03 54.17252 9.08775 5665 ft 102 kts 16°
2026-05-05 19:03 54.17942 9.09046 5593 ft 101 kts 15°
2026-05-05 19:03 54.18627 9.09288 5523 ft 101 kts 14°
2026-05-05 19:03 54.19321 9.09531 5457 ft 101 kts 14°
2026-05-05 19:04 54.20103 9.09751 5335 ft 100 kts 345°
2026-05-05 19:04 54.20261 9.09657 4529 ft 147 kts 176°
2026-05-05 19:04 54.19474 9.09698 4478 ft 83 kts 174°
2026-05-05 19:04 54.18512 9.09869 4115 ft 141 kts 171°
2026-05-05 19:05 54.17534 9.10086 3936 ft 146 kts 173°
2026-05-05 19:05 54.16546 9.09985 3917 ft 140 kts 191°
2026-05-05 19:05 54.15659 9.09331 3831 ft 139 kts 210°
2026-05-05 19:05 54.14864 9.08474 3852 ft 129 kts 211°
2026-05-05 19:06 54.14095 9.07621 3701 ft 137 kts 212°
2026-05-05 19:06 54.13327 9.06764 3676 ft 131 kts 212°
2026-05-05 19:06 54.12576 9.05902 3653 ft 127 kts 213°
2026-05-05 19:06 54.11827 9.05053 3540 ft 130 kts 212°
2026-05-05 19:07 54.11075 9.04210 3512 ft 126 kts 212°
2026-05-05 19:07 54.10630 9.03711 3731 ft 104 kts 211°
2026-05-05 19:07 54.09858 9.02862 3752 ft 99 kts 211°
2026-05-05 19:07 54.09252 9.02326 3667 ft 105 kts 187°
2026-05-05 19:08 54.08602 9.02706 3888 ft 75 kts 124°
2026-05-05 19:08 54.08748 9.03217 4166 ft 69 kts 355°
2026-05-05 19:08 54.08749 9.02575 4315 ft 68 kts 180°
2026-05-05 19:08 54.08729 9.03046 4466 ft 66 kts 12°
2026-05-05 19:09 54.08794 9.02428 4614 ft 66 kts 194°
2026-05-05 19:09 54.08711 9.02861 4698 ft 70 kts 18°
2026-05-05 19:09 54.08796 9.02287 4841 ft 72 kts 184°
2026-05-05 19:09 54.08808 9.02703 4955 ft 76 kts 348°
2026-05-05 19:10 54.08736 9.02135 5062 ft 69 kts 160°
2026-05-05 19:10 54.08850 9.02532 5152 ft 79 kts 328°
2026-05-05 19:10 54.08678 9.02115 5214 ft 72 kts 118°
2026-05-05 19:10 54.08946 9.02162 5329 ft 81 kts 271°
2026-05-05 19:11 54.08661 9.02168 5400 ft 68 kts 70°
2026-05-05 19:11 54.08911 9.01846 5499 ft 76 kts 226°
2026-05-05 19:11 54.08552 9.02219 5426 ft 84 kts 110°
2026-05-05 19:11 54.08183 9.02977 5541 ft 88 kts 134°
2026-05-05 19:12 54.07652 9.03580 5556 ft 93 kts 148°
2026-05-05 19:12 54.07104 9.04250 5445 ft 100 kts 136°
2026-05-05 19:12 54.06594 9.05027 5291 ft 107 kts 136°
2026-05-05 19:12 54.05953 9.05895 5157 ft 115 kts 140°
2026-05-05 19:13 54.05537 9.06442 4985 ft 121 kts 139°
2026-05-05 19:13 54.04899 9.07307 5036 ft 113 kts 140°
2026-05-05 19:13 54.04241 9.08061 4959 ft 115 kts 146°
2026-05-05 19:13 54.03603 9.08824 4911 ft 111 kts 139°
2026-05-05 19:14 54.03000 9.09672 4805 ft 114 kts 138°
2026-05-05 19:14 54.02379 9.10501 4732 ft 114 kts 143°
2026-05-05 19:14 54.01702 9.11198 4665 ft 114 kts 148°
2026-05-05 19:14 54.00990 9.11794 4638 ft 113 kts 151°
2026-05-05 19:15 54.00269 9.12397 4610 ft 114 kts 149°
2026-05-05 19:15 53.99574 9.13059 4594 ft 115 kts 148°
2026-05-05 19:15 53.98890 9.13722 4569 ft 111 kts 149°
2026-05-05 19:15 53.98504 9.14222 4516 ft 67 kts 40°
2026-05-05 19:16 53.98520 9.14470 2583 ft 37 kts 58°
2026-05-05 19:16 53.98890 9.14176 1579 ft 17 kts 86°
2026-05-05 19:16 53.99142 9.14453 1191 ft 89 kts 62°
2026-05-05 19:16 53.98979 9.15313 1190 ft 84 kts 131°
2026-05-05 19:17 53.98605 9.16041 1177 ft 79 kts 127°
2026-05-05 19:17 53.98201 9.16707 1149 ft 85 kts 163°
2026-05-05 19:17 53.97917 9.15843 615 ft 126 kts 266°
2026-05-05 19:17 53.97790 9.14151 141 ft 149 kts 261°
2026-05-05 19:18 53.97496 9.13036 719 ft 77 kts 231°
2026-05-05 19:18 53.97552 9.12307 646 ft 71 kts
2026-05-05 19:18 53.97698 9.12833 518 ft 52 kts 108°
2026-05-05 19:18 53.97735 9.13450 291 ft 55 kts 82°
2026-05-05 19:19 53.97785 9.14074 143 ft 50 kts 79°
2026-05-05 19:19 53.97835 9.14609 123 ft 41 kts 80°
2026-05-05 19:19 53.97844 9.14913 128 ft 9 kts 150°